{"data":{"norad_id":63468,"epoch":"2026-05-25T04:16:24.924000Z","epoch_age_seconds":56847,"freshness":"FRESH","line1":"1 63468U 25070J   26145.17806625  .00013179  00000+0  48735-3 0  9994","line2":"2 63468  42.9995 187.8986 0001625 265.1897  94.8769 15.27596462 64679","mean_motion":15.27596462,"eccentricity":0.0001625,"inclination_deg":42.9995,"raan_deg":187.8986,"arg_perigee_deg":265.1897,"mean_anomaly_deg":94.8769,"bstar":0.00048735,"rev_number":6467,"period_min":94.265732856875,"perigee_km":481.88486860161,"apogee_km":484.11473806269,"semimajor_km":6861.1368033321,"source":"CELESTRAK","updated_at":"2026-05-25T13:38:20.006076Z"}}